YAMAL 300K

Last updated on Jan. 20, 2021, 6:22 a.m. UTC

1 38978U 12061B   21019.79882123  .00000076  00000-0  00000-0 0  9991
2 38978   0.0148  96.4516 0000730 119.9891  13.4677  1.00268691 29843
UTC
Height (km)
Latitude
Longitude
Inclination
Orbital Period
UTC large
Height (km)
Speed (km/s)
/
Latitude / Longitude
Inclination (degrees)
Orbital Period (minutes)
Azimuth
Elevation
Range (km)
Doppler Factor
iOS Compass Heading
iOS Angle

Next 30 passes for location: Hong Kong

Rise time Rise Azimuth (degrees) Set time Set Azimuth (degrees) Duration Max altitude (degrees)

No matching passes for this satellites